Helicity
212 163 88 70 85 69 67 109 116 126 85 98 68 85 74 66 62 73 84 117 142 132 125 123 111 63 29 41 54 53 68 59 74 69 68 66 75 72 64 44 45 51 53 58
228 37 75 85 95 74 71 106 125 151 147 113 97 77 65 59 47 51 74 107 142 167 195 192 170 153 72 48 54 66 66 91 84 97 121 107 98 84 79 73 64 66 69 70
185 69 117 117 132 108 100 87 86 83 142 140 90 62 57 58 66 81 105 116 142 165 209 252 256 254 210 143 67 73 93 117 126 159 182 167 140 123 110 98 93 85 74 80
152 181 161 185 123 169 127 99 121 98 140 111 115 46 53 78 75 103 132 161 173 167 197 246 286 304 296 268 190 140 137 150 157 160 164 161 142 143 142 141 129 122 111 104
214 144 173 220 136 188 120 165 181 173 161 124 121 115 12 96 79 95 131 157 161 170 199 253 289 305 336 369 367 325 281 231 184 162 159 169 166 157 149 138 130 116 97 90
245 213 198 143 254 217 114 307 330 255 190 159 114 173 40 51 82 152 147 160 166 195 243 276 291 312 368 394 399 384 377 404 313 266 226 194 176 159 151 138 126 109 82 71
307 241 272 216 334 342 272 306 319 310 290 183 176 226 80 107 113 133 195 207 230 250 275 295 324 340 348 392 415 402 406 430 382 357 348 293 248 220 193 161 131 112 75 60
404 351 239 234 253 315 307 266 329 269 269 255 256 186 155 171 198 231 258 267 283 296 294 309 314 311 312 318 325 327 347 363 348 316 292 262 249 213 188 152 100 83 79 63
400 324 321 255 255 251 297 306 279 259 288 258 205 235 157 165 235 292 282 289 310 325 337 333 326 317 302 305 296 272 267 280 279 252 241 235 198 174 142 128 104 85 73 69
188 346 322 345 312 320 240 289 360 350 289 265 247 257 179 139 174 215 295 343 361 364 364 354 345 331 319 307 304 296 282 283 264 243 217 202 193 175 151 128 129 121 106 106
242 266 365 309 276 330 388 331 338 284 324 279 231 197 164 138 185 263 330 347 359 367 345 325 314 292 270 261 264 275 289 278 261 229 210 198 183 161 148 145 141 133 121 126
253 219 253 302 326 352 351 312 437 354 323 347 317 258 197 168 177 308 282 314 343 342 341 306 288 277 272 264 259 258 239 231 210 182 170 163 150 143 145 150 152 148 150 145
366 293 321 351 310 324 338 353 364 377 329 252 292 258 269 214 228 245 362 360 360 366 353 337 308 295 276 265 261 247 242 221 202 183 177 181 185 175 170 163 155 146 141 109
344 378 333 290 301 366 385 376 390 386 338 316 313 309 284 282 258 276 322 341 324 302 300 312 314 298 278 283 282 264 251 224 194 178 166 159 147 131 109 101 124 115 80 65
297 266 345 371 266 233 200 291 325 323 220 287 201 282 225 122 150 204 353 345 327 332 309 303 303 294 284 278 255 230 207 187 152 139 137 133 113 117 152 158 120 95 76 64
379 248 316 332 289 282 260 208 173 185 258 355 302 258 271 275 303 306 297 331 345 325 326 297 273 267 277 266 224 201 198 174 141 138 142 142 165 174 141 108 93 79 74 65
515 381 285 348 290 299 309 209 221 260 293 222 289 266 276 223 194 234 328 331 338 314 299 298 283 268 250 238 209 208 182 151 148 150 160 167 150 116 96 83 76 74 66 49
313 337 292 260 314 400 222 285 287 299 254 313 327 220 215 150 190 262 303 391 354 343 332 304 275 266 264 260 251 192 179 174 177 181 166 129 107 92 75 62 53 49 44 47
388 397 335 331 436 327 279 282 316 295 215 178 244 276 289 375 442 409 309 361 370 330 292 277 282 286 296 283 225 205 203 179 160 162 121 84 68 62 62 71 73 72 74 81
419 417 376 370 355 299 258 265 235 239 263 173 218 250 314 315 368 327 437 507 487 412 362 351 349 318 315 264 190 155 147 126 112 69 60 49 48 60 72 73 88 88 80 76
473 418 345 356 323 299 218 175 282 253 161 193 223 261 249 293 282 433 519 552 472 428 407 407 350 277 196 132 125 130 93 105 87 76 75 82 85 88 74 79 78 76 73 55
431 469 346 352 287 140 171 330 295 277 321 227 276 333 393 320 350 494 572 578 561 526 433 298 213 177 154 114 95 101 108 82 82 85 87 97 94 83 73 61 70 61 42 52
326 377 374 378 335 428 351 331 326 279 265 339 420 349 351 405 481 528 571 506 431 300 211 182 145 102 90 92 90 100 94 100 114 119 107 85 71 64 62 64 59 55 75 68
300 390 357 302 350 468 548 473 364 342 360 312 213 275 318 397 407 429 379 287 218 164 119 97 103 109 108 104 104 106 113 109 98 84 67 53 56 70 70 73 74 74 80 81
306 343 324 308 340 306 389 437 288 386 453 523 497 380 355 319 240 148 109 91 96 112 119 116 120 130 132 123 115 101 91 73 63 48 56 75 79 77 86 89 87 87 98 81
396 369 394 348 406 449 457 570 538 563 482 377 299 298 213 150 130 138 153 135 133 142 141 145 133 113 96 86 88 86 72 63 65 76 81 80 82 83 88 85 92 69 70 74
Wind_Speed
46 49 45 32 32 33 24 24 22 27 23 23 20 30 30 32 30 32 34 36 36 32 40 40 41 39 12 9 7 8 8 6 3 5 9 15 18 22 24 24 24 25 25 27
52 61 48 40 37 34 24 24 26 26 25 27 29 39 33 30 28 30 32 33 35 38 40 41 40 36 23 8 9 9 9 8 6 4 10 19 20 23 25 25 27 29 29 31
65 54 43 42 41 37 37 30 25 27 23 29 33 42 36 29 25 28 31 31 33 34 36 37 37 36 31 19 8 9 10 10 9 10 12 20 23 27 28 30 32 33 34 37
68 56 47 51 50 41 42 34 24 21 26 39 34 42 36 32 27 28 30 31 31 33 33 32 33 32 29 28 20 12 11 11 13 13 14 18 24 29 33 36 38 41 41 43
72 59 54 56 54 41 46 30 30 31 35 38 37 42 38 32 29 27 26 27 29 32 32 31 31 30 28 25 20 16 13 14 14 15 16 20 25 30 34 38 40 42 43 43
62 52 53 56 45 44 25 27 28 34 40 60 43 41 47 33 30 22 23 24 26 29 29 28 29 28 27 24 20 17 13 17 18 18 20 23 27 31 35 40 44 46 47 48
68 62 54 43 44 39 43 37 53 59 59 63 42 43 50 38 34 25 17 20 24 25 25 25 25 26 26 25 22 19 18 19 21 21 23 26 28 31 35 41 45 48 51 53
84 86 62 53 55 57 49 51 56 70 69 64 46 57 50 43 36 21 18 18 20 21 21 21 22 22 22 22 22 20 19 20 23 24 26 27 29 33 37 41 44 49 52 54
80 81 59 53 48 44 60 67 46 52 53 60 55 56 50 35 28 22 20 18 19 19 18 18 20 20 20 20 21 20 20 21 24 25 27 30 33 35 38 42 45 49 52 56
63 76 59 55 48 52 54 44 62 62 75 81 69 67 57 37 31 27 24 21 19 17 17 16 17 19 20 20 20 20 21 23 25 27 29 32 35 38 41 45 49 54 58 61
60 62 65 55 69 66 56 62 58 54 66 77 80 77 50 48 34 29 25 20 16 15 14 13 14 16 17 19 20 21 23 24 27 30 33 35 39 43 47 51 55 59 62 66
70 64 71 75 61 60 65 69 66 76 78 71 76 80 45 45 30 24 21 18 17 16 14 11 11 12 15 18 21 23 25 27 30 32 35 40 44 49 54 58 62 65 68 70
80 81 83 79 74 68 80 72 69 67 62 82 88 84 51 40 28 25 24 21 19 17 16 14 12 13 15 18 21 25 28 31 34 37 41 45 50 54 59 63 66 68 71 74
70 86 99 108 95 74 84 79 72 72 84 88 90 80 58 45 37 31 25 21 20 17 14 13 14 14 17 20 23 27 31 35 38 42 46 50 55 58 61 65 69 72 75 77
68 93 88 85 75 70 78 81 78 82 84 84 93 83 65 49 40 33 25 22 21 18 14 14 15 17 18 22 25 29 34 38 42 45 50 54 58 62 67 71 74 75 78 80
61 75 78 89 78 78 87 79 75 79 79 82 75 74 57 42 33 31 28 26 25 22 19 17 17 18 22 24 28 33 37 41 44 49 53 58 64 68 71 74 76 78 81 82
74 70 70 89 68 69 89 80 72 73 73 70 81 69 44 38 35 33 31 30 27 23 20 18 18 21 24 27 31 34 39 43 47 52 57 63 67 71 74 76 79 82 84 85
60 59 64 77 68 104 87 65 66 68 65 61 59 51 42 39 33 28 28 27 24 22 20 18 17 19 22 27 32 36 42 47 51 55 59 64 68 72 74 76 78 82 84 87
63 62 69 79 90 80 75 68 62 62 69 49 46 39 34 25 26 35 28 26 23 20 17 17 18 19 25 32 35 39 44 48 52 57 61 65 67 70 73 77 81 84 87 88
50 51 63 67 82 96 72 50 43 43 73 42 41 37 31 28 49 48 30 24 20 18 18 19 21 23 30 34 35 39 46 50 56 58 61 64 67 71 76 78 81 82 84 86
55 58 65 61 68 67 50 42 43 70 77 41 40 40 39 49 53 27 23 22 18 16 16 19 24 29 32 34 37 44 48 54 57 59 63 66 70 74 75 79 81 82 84 84
62 62 67 63 73 91 42 44 61 59 49 38 34 30 29 22 14 14 17 17 16 16 18 21 26 30 33 36 40 46 52 55 59 63 67 71 73 75 77 81 81 81 82 85
65 56 65 63 72 49 45 50 41 38 29 30 22 16 12 11 11 13 14 13 14 17 19 21 24 29 34 39 44 51 56 60 65 69 72 74 75 76 76 80 82 82 83 85
62 54 60 58 56 50 49 43 32 24 20 13 9 8 6 6 8 8 9 9 10 13 17 22 26 32 39 45 50 54 59 63 67 71 73 73 75 77 77 79 79 81 82 84
51 45 42 47 38 28 29 29 22 13 5 5 9 6 3 7 4 5 3 6 11 17 22 28 34 41 47 51 55 57 61 64 68 70 72 74 76 78 81 79 80 79 76 78
46 46 47 51 33 40 31 27 19 9 7 2 8 6 3 7 5 1 7 12 18 24 31 37 43 47 51 55 58 61 63 66 70 74 75 76 77 79 81 83 86 76 78 82
Wind_Direction
237 239 232 226 238 266 264 269 273 280 288 285 284 283 294 309 318 315 310 303 299 300 290 291 289 286 290 260 227 202 193 186 191 318 338 339 342 338 338 341 342 342 344 343
237 239 241 244 247 258 268 267 274 284 287 285 286 279 292 308 319 322 319 314 305 293 289 290 293 296 298 273 232 227 216 208 213 265 318 326 334 335 339 342 339 337 337 336
236 249 235 242 243 246 259 262 268 279 284 291 290 283 284 301 317 323 323 321 312 305 301 298 298 298 299 301 265 236 242 249 264 281 304 317 325 327 330 330 330 331 329 327
243 246 238 239 244 245 250 262 266 273 276 278 289 286 289 290 299 309 315 319 319 318 318 315 308 306 307 305 303 291 276 275 280 280 285 298 310 317 321 325 326 326 326 325
238 238 237 240 246 243 259 255 260 272 278 282 283 286 289 292 290 296 309 315 319 321 323 323 322 320 317 316 316 314 309 304 299 294 293 300 309 318 322 325 327 329 329 329
244 248 244 246 249 246 237 254 272 278 277 272 274 275 285 286 290 289 301 312 319 323 328 332 331 332 332 330 329 330 332 324 320 315 310 308 309 314 317 320 322 324 325 326
238 241 247 243 238 240 249 243 263 267 267 271 281 273 277 290 293 291 282 303 313 319 324 330 334 335 336 336 334 335 335 331 333 333 329 326 325 324 323 323 323 324 324 324
232 238 238 243 246 242 239 248 256 263 266 270 277 273 281 286 291 299 301 306 314 320 327 331 336 342 345 345 346 348 347 344 340 339 338 340 338 333 332 331 330 329 328 328
234 241 243 247 249 242 247 248 259 269 279 275 275 280 286 289 289 286 289 296 303 311 320 330 337 343 348 352 351 350 351 349 345 344 343 342 341 340 338 337 338 334 335 332
242 241 247 246 247 252 254 244 254 261 265 269 276 277 280 277 272 273 275 280 292 306 315 329 337 345 351 356 360 359 356 353 350 350 348 346 344 343 341 340 337 335 333 332
241 247 246 245 245 242 248 251 259 264 267 269 274 279 289 282 267 262 267 271 276 287 299 317 332 342 349 352 354 357 352 349 345 343 342 341 339 338 337 335 333 332 332 331
240 248 248 247 256 254 254 255 252 259 265 271 275 277 297 297 279 258 258 263 272 278 287 305 321 333 340 342 340 341 342 341 339 338 337 336 335 334 333 332 332 332 331 331
234 244 247 252 256 256 252 254 255 262 271 268 271 278 293 292 284 266 256 259 261 265 274 288 304 317 328 334 336 335 335 335 336 336 336 335 333 333 332 332 332 332 331 330
235 245 245 248 255 254 255 254 256 259 264 268 271 277 283 281 276 267 253 246 243 246 256 273 291 309 319 327 333 334 333 334 334 334 333 333 332 332 332 332 331 331 331 330
240 244 247 253 256 257 259 255 253 255 260 266 274 272 276 272 268 257 247 236 231 237 247 264 281 296 312 322 327 330 330 330 331 332 332 331 331 331 331 331 330 330 329 329
243 249 249 252 256 258 260 260 256 255 261 266 274 277 285 275 270 258 236 227 234 239 248 262 280 295 306 315 320 324 327 328 330 330 330 330 330 331 330 330 329 329 329 329
239 248 252 254 259 259 259 258 257 261 263 261 266 274 279 272 259 243 232 230 231 234 244 259 277 293 304 313 319 325 326 327 328 328 329 329 329 329 329 329 329 328 328 328
236 243 255 256 256 254 263 268 264 261 268 266 273 274 270 269 268 252 236 231 231 239 252 266 283 299 313 320 325 326 326 327 328 328 328 329 329 328 329 329 329 329 329 328
244 247 255 254 253 264 265 264 263 261 267 267 267 271 273 268 272 268 250 241 240 243 253 272 290 305 316 319 322 325 326 328 328 329 328 329 330 330 329 329 329 328 328 328
248 251 250 255 256 256 267 269 271 271 267 263 265 261 254 256 266 265 247 237 241 253 266 279 297 310 315 319 323 325 325 326 326 328 329 330 331 330 330 329 329 330 330 329
246 250 247 254 259 266 272 267 270 262 273 265 266 263 257 268 279 247 231 238 243 252 268 291 302 307 313 320 323 322 324 325 327 328 329 330 331 330 331 330 330 330 329 329
246 245 252 258 262 264 272 270 267 278 284 276 271 266 266 273 260 225 224 231 243 262 282 295 303 309 315 322 324 323 322 325 328 328 328 329 330 330 331 329 330 330 330 329
253 260 256 262 266 277 277 282 281 282 275 282 274 262 246 252 237 224 228 236 261 279 292 302 307 313 318 322 322 321 322 324 325 326 325 326 328 329 330 330 330 330 330 329
264 270 266 267 274 274 277 283 280 274 277 278 267 255 244 221 209 222 250 261 277 295 305 311 314 316 318 319 321 322 323 324 324 324 325 326 327 328 329 330 330 329 328 327
270 269 268 273 271 270 278 279 276 273 265 243 285 261 194 140 161 157 206 283 299 307 315 317 317 317 318 320 321 322 323 323 323 324 324 326 327 327 328 328 328 327 328 327
272 268 269 275 253 271 264 271 264 262 263 209 133 121 104 122 121 54 317 315 315 316 317 317 318 318 318 319 319 321 322 323 323 323 325 326 326 326 327 327 326 328 326 325